Time,TemperatureF,DewpointF,PressureIn,WindDirection,WindDirectionDegrees,WindSpeedMPH,WindSpeedGustMPH,Humidity,HourlyPrecipIn,Conditions,Clouds,dailyrainin,SoftwareType,DateUTC
2013-02-27 00:02:00,31.0,31.0,29.64,ENE,67,10.0,22.0,98,0.00,,,0.03,,2013-02-27 06:02:00,
2013-02-27 00:11:00,31.0,31.0,29.64,ENE,67,10.0,22.0,98,0.00,,,0.03,,2013-02-27 06:11:00,
2013-02-27 00:21:00,31.0,31.0,29.64,ENE,61,12.0,23.0,98,0.00,,,0.03,,2013-02-27 06:21:00,
2013-02-27 00:32:00,31.0,31.0,29.64,NE,43,11.0,19.0,98,0.00,,,0.03,,2013-02-27 06:32:00,
2013-02-27 00:41:00,31.0,31.0,29.64,NE,43,11.0,19.0,98,0.00,,,0.03,,2013-02-27 06:41:00,
2013-02-27 00:52:00,31.0,31.0,29.64,NE,40,10.0,23.0,98,0.00,,,0.03,,2013-02-27 06:52:00,
2013-02-27 01:01:00,31.0,31.0,29.63,NE,55,11.0,20.0,98,0.00,,,0.03,,2013-02-27 07:01:00,
2013-02-27 01:12:00,31.0,31.0,29.63,NE,55,11.0,20.0,98,0.00,,,0.03,,2013-02-27 07:12:00,
2013-02-27 01:21:00,31.0,31.0,29.64,NE,50,10.0,19.0,98,0.00,,,0.03,,2013-02-27 07:21:00,
2013-02-27 01:31:00,31.0,31.0,29.63,NNE,32,13.0,21.0,98,0.00,,,0.03,,2013-02-27 07:31:00,
2013-02-27 01:41:00,31.0,31.0,29.63,NNE,32,13.0,21.0,98,0.00,,,0.03,,2013-02-27 07:41:00,
2013-02-27 01:52:00,31.0,30.0,29.63,ENE,74,11.0,19.0,97,0.00,,,0.03,,2013-02-27 07:52:00,
2013-02-27 02:01:00,31.0,31.0,29.63,NNE,30,10.0,19.0,98,0.00,,,0.03,,2013-02-27 08:01:00,
2013-02-27 02:11:00,31.0,31.0,29.63,NNE,30,10.0,19.0,98,0.00,,,0.03,,2013-02-27 08:11:00,
2013-02-27 02:21:00,31.0,31.0,29.62,NE,46,13.0,22.0,98,0.00,,,0.03,,2013-02-27 08:21:00,
2013-02-27 02:31:00,31.0,31.0,29.62,NE,42,11.0,19.0,98,0.00,,,0.03,,2013-02-27 08:31:00,
2013-02-27 02:41:00,31.0,31.0,29.62,NE,42,11.0,19.0,98,0.00,,,0.03,,2013-02-27 08:41:00,
2013-02-27 02:53:00,31.0,31.0,29.62,ENE,61,8.0,17.0,98,0.00,,,0.03,,2013-02-27 08:53:00,
2013-02-27 03:01:00,31.0,31.0,29.62,NNE,32,9.0,19.0,98,0.00,,,0.03,,2013-02-27 09:01:00,
2013-02-27 03:11:00,31.0,31.0,29.62,NNE,32,9.0,19.0,98,0.00,,,0.03,,2013-02-27 09:11:00,
2013-02-27 03:21:00,31.0,31.0,29.62,NNE,27,8.0,15.0,98,0.00,,,0.03,,2013-02-27 09:21:00,
2013-02-27 03:32:00,31.0,31.0,29.61,NE,56,8.0,16.0,98,0.00,,,0.03,,2013-02-27 09:32:00,
2013-02-27 03:41:00,31.0,31.0,29.61,NE,56,8.0,16.0,98,0.00,,,0.03,,2013-02-27 09:41:00,
2013-02-27 03:52:00,31.0,31.0,29.61,NNE,22,7.0,17.0,98,0.00,,,0.03,,2013-02-27 09:52:00,
2013-02-27 04:01:00,31.0,31.0,29.61,NE,44,8.0,17.0,98,0.00,,,0.03,,2013-02-27 10:01:00,
2013-02-27 04:12:00,31.0,31.0,29.61,NE,44,8.0,17.0,98,0.00,,,0.03,,2013-02-27 10:12:00,
2013-02-27 04:21:00,31.0,31.0,29.62,NE,42,8.0,17.0,98,0.00,,,0.03,,2013-02-27 10:21:00,
2013-02-27 04:32:00,31.0,31.0,29.62,NNE,32,9.0,16.0,98,0.01,,,0.04,,2013-02-27 10:32:00,
2013-02-27 04:42:00,31.0,31.0,29.62,NNE,32,9.0,16.0,98,0.01,,,0.04,,2013-02-27 10:42:00,
2013-02-27 04:53:00,31.0,31.0,29.62,NE,36,7.0,14.0,98,0.01,,,0.04,,2013-02-27 10:53:00,
2013-02-27 05:02:00,31.0,31.0,29.62,NE,34,9.0,16.0,98,0.01,,,0.04,,2013-02-27 11:02:00,
2013-02-27 05:12:00,31.0,31.0,29.62,NE,34,9.0,16.0,98,0.01,,,0.04,,2013-02-27 11:12:00,
2013-02-27 05:22:00,30.0,29.0,29.61,NNE,23,6.0,18.0,98,0.01,,,0.04,,2013-02-27 11:22:00,
2013-02-27 05:32:00,30.0,29.0,29.61,NE,48,9.0,15.0,98,0.00,,,0.04,,2013-02-27 11:32:00,
2013-02-27 05:41:00,30.0,29.0,29.61,NE,48,9.0,15.0,98,0.00,,,0.04,,2013-02-27 11:41:00,
2013-02-27 05:52:00,30.0,29.0,29.61,NNW,327,7.0,15.0,97,0.00,,,0.04,,2013-02-27 11:52:00,
2013-02-27 06:02:00,29.0,28.0,29.62,North,5,9.0,14.0,97,0.00,,,0.04,,2013-02-27 12:02:00,
2013-02-27 06:12:00,29.0,28.0,29.62,North,5,9.0,14.0,97,0.00,,,0.04,,2013-02-27 12:12:00,
2013-02-27 06:22:00,29.0,28.0,29.62,ENE,71,10.0,16.0,97,0.00,,,0.04,,2013-02-27 12:22:00,
2013-02-27 06:32:00,29.0,28.0,29.62,NE,36,9.0,16.0,97,0.00,,,0.04,,2013-02-27 12:32:00,
2013-02-27 06:42:00,29.0,28.0,29.62,NE,36,9.0,16.0,97,0.00,,,0.04,,2013-02-27 12:42:00,
2013-02-27 06:52:00,29.0,28.0,29.62,NNE,24,10.0,17.0,97,0.00,,,0.04,,2013-02-27 12:52:00,
2013-02-27 07:02:00,29.0,28.0,29.62,NE,39,10.0,18.0,97,0.00,,,0.04,,2013-02-27 13:02:00,
2013-02-27 07:11:00,29.0,28.0,29.62,NE,39,10.0,18.0,97,0.00,,,0.04,,2013-02-27 13:11:00,
2013-02-27 07:22:00,29.0,28.0,29.63,NNE,28,8.0,18.0,97,0.00,,,0.04,,2013-02-27 13:22:00,
2013-02-27 07:32:00,29.0,28.0,29.63,NNE,31,9.0,18.0,96,0.00,,,0.04,,2013-02-27 13:32:00,
2013-02-27 07:42:00,29.0,28.0,29.63,NNE,31,9.0,18.0,96,0.00,,,0.04,,2013-02-27 13:42:00,
2013-02-27 07:52:00,29.0,28.0,29.64,NE,39,9.0,19.0,96,0.00,,,0.04,,2013-02-27 13:52:00,
2013-02-27 08:02:00,29.0,28.0,29.64,NNE,28,14.0,20.0,96,0.00,,,0.04,,2013-02-27 14:02:00,
2013-02-27 08:12:00,29.0,28.0,29.64,NNE,28,14.0,20.0,96,0.00,,,0.04,,2013-02-27 14:12:00,
2013-02-27 08:21:00,29.0,28.0,29.64,NNE,29,6.0,18.0,96,0.00,,,0.04,,2013-02-27 14:21:00,
2013-02-27 08:32:00,29.0,28.0,29.64,NNE,30,7.0,17.0,96,0.00,,,0.04,,2013-02-27 14:32:00,
2013-02-27 08:42:00,29.0,28.0,29.64,NNE,30,7.0,17.0,96,0.00,,,0.04,,2013-02-27 14:42:00,
2013-02-27 08:52:00,30.0,29.0,29.64,NNE,32,11.0,17.0,97,0.00,,,0.04,,2013-02-27 14:52:00,
2013-02-27 09:02:00,30.0,29.0,29.64,NNE,17,9.0,17.0,97,0.00,,,0.04,,2013-02-27 15:02:00,
2013-02-27 09:12:00,30.0,29.0,29.64,NNE,17,9.0,17.0,97,0.00,,,0.04,,2013-02-27 15:12:00,
2013-02-27 09:22:00,30.0,29.0,29.64,NNE,21,9.0,19.0,97,0.00,,,0.04,,2013-02-27 15:22:00,
2013-02-27 09:32:00,30.0,29.0,29.64,NNE,21,9.0,19.0,97,0.00,,,0.04,,2013-02-27 15:32:00,
2013-02-27 09:42:00,30.0,29.0,29.64,NNE,21,9.0,19.0,97,0.00,,,0.04,,2013-02-27 15:42:00,
2013-02-27 09:52:00,30.0,29.0,29.64,NNE,21,9.0,19.0,97,0.00,,,0.04,,2013-02-27 15:52:00,
2013-02-27 10:02:00,30.0,29.0,29.64,NNE,21,9.0,19.0,97,0.00,,,0.04,,2013-02-27 16:02:00,
2013-02-27 10:22:00,31.0,30.0,29.63,NE,37,12.0,18.0,97,0.00,,,0.04,,2013-02-27 16:22:00,
2013-02-27 10:32:00,31.0,30.0,29.63,NE,44,10.0,19.0,97,0.00,,,0.04,,2013-02-27 16:32:00,
2013-02-27 10:42:00,31.0,30.0,29.63,NE,44,10.0,19.0,97,0.00,,,0.04,,2013-02-27 16:42:00,
2013-02-27 10:52:00,31.0,30.0,29.63,NNE,30,9.0,16.0,97,0.00,,,0.04,,2013-02-27 16:52:00,
2013-02-27 11:01:00,31.0,30.0,29.63,NE,34,8.0,18.0,97,0.00,,,0.04,,2013-02-27 17:01:00,
2013-02-27 11:11:00,31.0,30.0,29.63,NE,34,8.0,18.0,97,0.00,,,0.04,,2013-02-27 17:11:00,
2013-02-27 11:21:00,31.0,30.0,29.64,NNE,32,8.0,16.0,97,0.00,,,0.04,,2013-02-27 17:21:00,
2013-02-27 11:32:00,32.0,31.0,29.63,NW,326,9.0,16.0,97,0.00,,,0.04,,2013-02-27 17:32:00,
2013-02-27 11:42:00,32.0,31.0,29.63,NW,326,9.0,16.0,97,0.00,,,0.04,,2013-02-27 17:42:00,
2013-02-27 11:52:00,32.0,31.0,29.64,NNE,28,8.0,14.0,97,0.00,,,0.04,,2013-02-27 17:52:00,
2013-02-27 12:01:00,32.0,31.0,29.64,NE,42,8.0,14.0,97,0.01,,,0.05,,2013-02-27 18:01:00,
2013-02-27 12:11:00,32.0,31.0,29.64,NE,42,8.0,14.0,97,0.01,,,0.05,,2013-02-27 18:11:00,
2013-02-27 12:22:00,32.0,31.0,29.63,NE,40,6.0,17.0,97,0.02,,,0.06,,2013-02-27 18:22:00,
2013-02-27 12:32:00,32.0,31.0,29.63,North,9,7.0,15.0,97,0.03,,,0.07,,2013-02-27 18:32:00,
2013-02-27 12:42:00,32.0,31.0,29.63,North,9,7.0,15.0,97,0.03,,,0.07,,2013-02-27 18:42:00,
2013-02-27 12:52:00,32.0,31.0,29.63,North,350,5.0,14.0,97,0.03,,,0.07,,2013-02-27 18:52:00,
2013-02-27 13:01:00,32.0,31.0,29.63,NNE,29,8.0,14.0,97,0.02,,,0.07,,2013-02-27 19:01:00,
2013-02-27 13:12:00,32.0,31.0,29.63,NNE,29,8.0,14.0,97,0.02,,,0.07,,2013-02-27 19:12:00,
2013-02-27 13:21:00,33.0,32.0,29.63,NE,42,8.0,15.0,97,0.02,,,0.08,,2013-02-27 19:21:00,
2013-02-27 13:32:00,33.0,32.0,29.64,North,11,6.0,17.0,97,0.01,,,0.08,,2013-02-27 19:32:00,
2013-02-27 13:42:00,33.0,32.0,29.64,North,11,6.0,17.0,97,0.01,,,0.08,,2013-02-27 19:42:00,
2013-02-27 13:52:00,33.0,32.0,29.64,NE,52,8.0,17.0,97,0.02,,,0.09,,2013-02-27 19:52:00,
2013-02-27 14:01:00,33.0,32.0,29.64,NNW,333,8.0,15.0,97,0.02,,,0.09,,2013-02-27 20:01:00,
2013-02-27 14:11:00,33.0,32.0,29.64,NNW,333,8.0,15.0,97,0.02,,,0.09,,2013-02-27 20:11:00,
2013-02-27 14:21:00,33.0,32.0,29.65,NNE,14,7.0,14.0,97,0.01,,,0.09,,2013-02-27 20:21:00,
2013-02-27 14:32:00,33.0,32.0,29.65,North,9,6.0,15.0,97,0.02,,,0.10,,2013-02-27 20:32:00,
2013-02-27 14:42:00,33.0,32.0,29.65,North,9,6.0,15.0,97,0.02,,,0.10,,2013-02-27 20:42:00,
2013-02-27 14:52:00,33.0,32.0,29.65,NNE,31,5.0,10.0,97,0.02,,,0.11,,2013-02-27 20:52:00,
2013-02-27 15:02:00,32.0,31.0,29.66,North,10,6.0,12.0,97,0.02,,,0.11,,2013-02-27 21:02:00,
2013-02-27 15:11:00,32.0,31.0,29.66,North,10,6.0,12.0,97,0.02,,,0.11,,2013-02-27 21:11:00,
2013-02-27 15:21:00,32.0,31.0,29.66,NNE,24,6.0,11.0,97,0.03,,,0.12,,2013-02-27 21:21:00,
2013-02-27 15:31:00,32.0,31.0,29.67,NNE,31,3.0,12.0,97,0.02,,,0.12,,2013-02-27 21:31:00,
2013-02-27 15:42:00,32.0,31.0,29.67,NNE,31,3.0,12.0,97,0.02,,,0.12,,2013-02-27 21:42:00,
2013-02-27 15:52:00,32.0,31.0,29.67,NE,35,2.0,12.0,97,0.02,,,0.13,,2013-02-27 21:52:00,
2013-02-27 16:01:00,32.0,32.0,29.67,NNE,33,5.0,13.0,98,0.02,,,0.13,,2013-02-27 22:01:00,
2013-02-27 16:11:00,32.0,32.0,29.67,NNE,33,5.0,13.0,98,0.02,,,0.13,,2013-02-27 22:11:00,
2013-02-27 16:21:00,32.0,32.0,29.67,NNE,31,0.0,7.0,98,0.01,,,0.13,,2013-02-27 22:21:00,
2013-02-27 16:31:00,32.0,32.0,29.68,NNE,18,0.0,0.0,98,0.01,,,0.13,,2013-02-27 22:31:00,
2013-02-27 16:41:00,32.0,32.0,29.68,NNE,18,0.0,0.0,98,0.01,,,0.13,,2013-02-27 22:41:00,
2013-02-27 16:52:00,32.0,32.0,29.69,NNE,32,0.0,0.0,98,0.00,,,0.13,,2013-02-27 22:52:00,
2013-02-27 17:01:00,32.0,32.0,29.69,North,9,0.0,0.0,98,0.00,,,0.13,,2013-02-27 23:01:00,
2013-02-27 17:11:00,32.0,32.0,29.69,North,9,0.0,0.0,98,0.00,,,0.13,,2013-02-27 23:11:00,
2013-02-27 17:21:00,32.0,32.0,29.70,NNE,18,0.0,0.0,98,0.00,,,0.12,,2013-02-27 23:21:00,
2013-02-27 17:32:00,32.0,32.0,29.70,NNE,21,0.0,0.0,98,0.00,,,0.12,,2013-02-27 23:32:00,
2013-02-27 17:42:00,32.0,32.0,29.70,NNE,21,0.0,0.0,98,0.00,,,0.12,,2013-02-27 23:42:00,
2013-02-27 17:53:00,32.0,32.0,29.71,NNE,19,0.0,0.0,98,0.00,,,0.12,,2013-02-27 23:53:00,
2013-02-27 18:01:00,32.0,32.0,29.72,NNE,19,0.0,0.0,98,0.00,,,0.12,,2013-02-28 00:01:00,
2013-02-27 18:11:00,32.0,32.0,29.72,NNE,19,0.0,0.0,98,0.00,,,0.12,,2013-02-28 00:11:00,
2013-02-27 18:21:00,32.0,32.0,29.72,NNE,17,0.0,0.0,98,0.00,,,0.11,,2013-02-28 00:21:00,
2013-02-27 18:32:00,32.0,32.0,29.73,North,355,0.0,0.0,98,0.00,,,0.11,,2013-02-28 00:32:00,
2013-02-27 18:42:00,32.0,32.0,29.73,North,355,0.0,0.0,98,0.00,,,0.11,,2013-02-28 00:42:00,
2013-02-27 18:52:00,31.0,31.0,29.73,NNE,23,0.0,0.0,98,0.00,,,0.11,,2013-02-28 00:52:00,
2013-02-27 19:01:00,31.0,31.0,29.74,North,355,0.0,0.0,98,0.00,,,0.11,,2013-02-28 01:01:00,
2013-02-27 19:11:00,31.0,31.0,29.74,North,355,0.0,0.0,98,0.00,,,0.11,,2013-02-28 01:11:00,
2013-02-27 19:21:00,31.0,31.0,29.74,North,5,0.0,0.0,98,0.00,,,0.10,,2013-02-28 01:21:00,
2013-02-27 19:31:00,31.0,31.0,29.74,North,11,0.0,0.0,98,0.01,,,0.11,,2013-02-28 01:31:00,
2013-02-27 19:41:00,31.0,31.0,29.74,North,11,0.0,0.0,98,0.01,,,0.11,,2013-02-28 01:41:00,
2013-02-27 19:52:00,31.0,31.0,29.74,North,11,0.0,0.0,98,0.01,,,0.11,,2013-02-28 01:52:00,
2013-02-27 20:01:00,31.0,31.0,29.74,North,360,0.0,0.0,98,0.01,,,0.11,,2013-02-28 02:01:00,
2013-02-27 20:11:00,31.0,31.0,29.74,North,360,0.0,0.0,98,0.01,,,0.11,,2013-02-28 02:11:00,
2013-02-27 20:22:00,31.0,31.0,29.75,North,350,0.0,0.0,98,0.01,,,0.11,,2013-02-28 02:22:00,
2013-02-27 20:31:00,31.0,31.0,29.75,NE,50,0.0,0.0,98,0.00,,,0.11,,2013-02-28 02:31:00,
2013-02-27 20:41:00,31.0,31.0,29.75,NE,50,0.0,0.0,98,0.00,,,0.11,,2013-02-28 02:41:00,
2013-02-27 20:52:00,31.0,31.0,29.75,NE,50,0.0,0.0,98,0.00,,,0.11,,2013-02-28 02:52:00,
2013-02-27 21:01:00,31.0,31.0,29.76,NNW,343,0.0,0.0,98,0.00,,,0.11,,2013-02-28 03:01:00,
2013-02-27 21:11:00,31.0,31.0,29.76,NNW,343,0.0,0.0,98,0.00,,,0.11,,2013-02-28 03:11:00,
2013-02-27 21:21:00,31.0,31.0,29.76,NNW,338,0.0,0.0,98,0.00,,,0.11,,2013-02-28 03:21:00,
2013-02-27 21:31:00,31.0,31.0,29.76,North,355,0.0,0.0,98,0.00,,,0.11,,2013-02-28 03:31:00,
2013-02-27 21:41:00,31.0,31.0,29.76,North,355,0.0,0.0,98,0.00,,,0.11,,2013-02-28 03:41:00,
2013-02-27 21:52:00,31.0,30.0,29.76,North,355,0.0,0.0,97,0.00,,,0.11,,2013-02-28 03:52:00,
2013-02-27 22:01:00,31.0,30.0,29.76,North,11,0.0,0.0,97,0.00,,,0.11,,2013-02-28 04:01:00,
2013-02-27 22:11:00,31.0,30.0,29.76,North,11,0.0,0.0,97,0.00,,,0.11,,2013-02-28 04:11:00,
2013-02-27 22:21:00,31.0,30.0,29.77,NW,321,0.0,0.0,97,0.00,,,0.11,,2013-02-28 04:21:00,
2013-02-27 22:31:00,31.0,30.0,29.77,North,355,0.0,0.0,97,0.00,,,0.11,,2013-02-28 04:31:00,
2013-02-27 22:42:00,31.0,30.0,29.77,North,355,0.0,0.0,97,0.00,,,0.11,,2013-02-28 04:42:00,
2013-02-27 22:52:00,31.0,30.0,29.77,North,5,0.0,0.0,97,0.00,,,0.11,,2013-02-28 04:52:00,
2013-02-27 23:01:00,31.0,30.0,29.78,NE,42,0.0,0.0,97,0.00,,,0.11,,2013-02-28 05:01:00,
2013-02-27 23:11:00,31.0,30.0,29.78,NE,42,0.0,0.0,97,0.00,,,0.11,,2013-02-28 05:11:00,
2013-02-27 23:22:00,31.0,30.0,29.78,North,360,0.0,0.0,97,0.00,,,0.11,,2013-02-28 05:22:00,
2013-02-27 23:31:00,31.0,30.0,29.78,NNE,30,0.0,0.0,97,0.00,,,0.11,,2013-02-28 05:31:00,
2013-02-27 23:42:00,31.0,30.0,29.78,NNE,30,0.0,0.0,97,0.00,,,0.11,,2013-02-28 05:42:00,
2013-02-27 23:52:00,31.0,30.0,29.78,NNW,344,0.0,0.0,97,0.00,,,0.11,,2013-02-28 05:52:00,